STARLINK-35688

Last updated on Fri Dec 19 2025 00:02:09 GMT+0000 (Coordinated Universal Time)

1 67019U 25293S 25351.83335648 -.01060835 35982-3 -22846-2 0 9999 2 67019 69.9929 309.0030 0004046 266.8307 139.2631 15.98276517 2389
UTC large
Height (km)
Speed (km/s)
/
Latitude / Longitude
Inclination (degrees)
Orbital Period (minutes)
Azimuth
Elevation
Range (km)
Doppler Factor

Next 0 passes for location: London (51.5072 / 0.1276)

Sorry there are no passes over London.